Location: Star Hoppers Observatory
(42.7905°N, 83.6127°W)
Time: 08:51:17
(UTC-04:00)

Amateur Radio Satellites - All Passes

Search period start: 19 October 2017 08:21
Search period end: 20 October 2017 08:21
Location: Star Hoppers Observatory, 42.7905°N, 83.6127°W

Satellite Date Start Highest point End Downlink Frequencies (MHz)
Time Altitude Azimuth
XW-2A 19 Oct 08:36:00 08:38:26 18° 94° (E) 08:40:50 145.665 - 145.685
SO-50 19 Oct 08:41:23 08:45:50 63° 307° (NW) 08:50:18 436.795
XW-2C 19 Oct 08:43:35 08:46:21 20° 292° (WNW) 08:49:06 145.795 - 145.815
UWE-3 19 Oct 08:50:40 08:54:40 30° 95° (E) 08:58:32 435.000/436.395/437.385
O/OREOS (USA 219) 19 Oct 08:52:17 08:55:38 20° 259° (W) 08:58:57 437.305
RS-15 19 Oct 08:56:37 09:07:40 38° 33° (NNE) 09:18:11 29.354- 29.394
CUTE 1.7 + AOD 2 19 Oct 08:59:52 09:04:03 70° 285° (WNW) 09:08:13 437.475
FO-29 19 Oct 09:04:44 09:09:39 44° 68° (ENE) 09:14:55 435.910
NO-84 19 Oct 09:06:19 09:08:46 15° 9° (N) 09:11:08 435.350 FM
TIGRISAT 19 Oct 09:07:27 09:08:44 11° 59° (ENE) 09:10:01 435.000
SEEDS 19 Oct 09:09:45 09:13:56 88° 285° (WNW) 09:18:06 437.485
Oscar 11 19 Oct 09:11:46 09:14:26 16° 91° (E) 09:17:06 .
HO-68 19 Oct 09:20:50 09:28:01 73° 290° (WNW) 09:35:11 435.675
YUBILEINY 19 Oct 09:21:27 09:28:19 27° 81° (E) 09:35:13 435.215
STRAND 1 19 Oct 09:27:38 09:31:14 19° 268° (W) 09:34:52 437.568
CUTE-I 19 Oct 09:35:16 09:38:44 18° 300° (WNW) 09:42:12 437.470
PCSat 19 Oct 09:36:14 09:41:37 72° 117° (ESE) 09:47:03 145.827
AAUSAT CUBESAT 2 19 Oct 09:37:57 09:42:05 84° 103° (ESE) 09:46:12 437.432
CUBEBUG 2 19 Oct 09:45:46 09:50:11 42° 289° (WNW) 09:54:27 437.445
AO-73 19 Oct 09:46:10 09:50:29 55° 100° (E) 09:54:39 145.935
ZACube-1 19 Oct 10:07:20 10:11:45 76° 284° (WNW) 10:16:02 437.345
XW-2A 19 Oct 10:08:23 10:11:06 23° 290° (WNW) 10:13:47 145.665 - 145.685
PRISM 19 Oct 10:20:18 10:23:40 26° 68° (ENE) 10:27:03 437.425
UNISAT 6 19 Oct 10:24:52 10:29:27 69° 75° (ENE) 10:34:09 437.425
SO-50 19 Oct 10:25:25 10:27:12 12° 327° (NNW) 10:28:59 436.795
UWE-3 19 Oct 10:27:12 10:31:01 27° 293° (WNW) 10:34:44 435.000/436.395/437.385
TIGRISAT 19 Oct 10:40:00 10:44:38 89° 85° (E) 10:49:22 435.000
NO-84 19 Oct 10:43:31 10:47:08 35° 30° (NNE) 10:50:28 435.350 FM
Oscar 11 19 Oct 10:46:41 10:50:49 46° 287° (WNW) 10:54:55 .
EO-88 19 Oct 10:48:46 10:51:26 19° 94° (E) 10:54:05 145.990 - 145.960
FO-29 19 Oct 10:51:00 10:55:05 23° 268° (W) 10:59:22 435.910
Max Valier Satellite 19 Oct 10:55:01 10:58:21 32° 97° (E) 11:01:39 145.860
RS-15 19 Oct 11:09:36 11:21:35 83° 239° (WSW) 11:32:51 29.354- 29.394
HO-68 19 Oct 11:10:35 11:14:32 16° 309° (NW) 11:18:30 435.675
YUBILEINY 19 Oct 11:15:45 11:24:22 66° 281° (WNW) 11:33:05 435.215
DELFI C3 19 Oct 11:18:18 11:22:16 90° 290° (WNW) 11:26:14 145.870
nSIGHT-1 19 Oct 11:20:55 11:23:59 47° 141° (SE) 11:27:05 .
PCSat 19 Oct 11:21:29 11:25:34 21° 317° (NW) 11:29:40 145.827
AO-73 19 Oct 11:23:44 11:26:12 15° 297° (WNW) 11:28:39 145.935
EO-79 19 Oct 11:39:11 11:42:14 20° 65° (ENE) 11:45:20 145.935-145.965
POLYITAN 1 19 Oct 11:43:19 11:46:34 22° 66° (ENE) 11:49:51 437.675
LO-87 19 Oct 11:43:48 11:44:58 11° 90° (E) 11:46:08 145.935 - 145.965
ISS 19 Oct 11:50:18 11:53:33 80° 145° (SE) 11:56:49 437.550
PRISM 19 Oct 11:55:28 11:58:51 26° 264° (W) 12:02:16 437.425
AIST 2D 19 Oct 12:01:07 12:04:38 88° 79° (E) 12:08:09 435.315
QB50P2 19 Oct 12:02:42 12:06:37 37° 70° (ENE) 12:10:35 145.880/145.840
UNISAT 6 19 Oct 12:04:34 12:06:38 13° 271° (W) 12:08:44 437.425
NANOSAT C BR1 19 Oct 12:07:21 12:11:11 33° 70° (ENE) 12:15:02 145.865
DUCHIFAT 1 19 Oct 12:18:40 12:22:36 39° 71° (ENE) 12:26:35 145.980
NO-84 19 Oct 12:21:08 12:24:27 31° 230° (SW) 12:27:32 435.350 FM
EO-88 19 Oct 12:21:59 12:25:05 27° 290° (WNW) 12:28:10 145.990 - 145.960
Max Valier Satellite 19 Oct 12:29:28 12:31:56 17° 293° (WNW) 12:34:23 145.860
BUGSAT 1 19 Oct 12:32:59 12:35:29 16° 63° (ENE) 12:37:59 437.445
ESTCUBE 1 19 Oct 12:36:18 12:40:26 35° 97° (E) 12:44:31 437.505/2401.250
nSIGHT-1 19 Oct 12:57:32 13:00:23 29° 339° (NNW) 13:03:14 .
EO-79 19 Oct 13:13:43 13:17:43 39° 262° (W) 13:21:45 145.935-145.965
LO-87 19 Oct 13:15:08 13:18:38 47° 287° (WNW) 13:22:07 145.935 - 145.965
POLYITAN 1 19 Oct 13:18:11 13:22:07 35° 263° (W) 13:26:06 437.675
YUBILEINY 19 Oct 13:19:06 13:23:09 14° 305° (NW) 13:27:14 435.215
BEESAT 2 19 Oct 13:23:08 13:26:01 19° 112° (ESE) 13:28:55 435.950
RS-15 19 Oct 13:24:18 13:31:59 21° 262° (W) 13:39:29 29.354- 29.394
Oscar 19 19 Oct 13:26:36 13:31:09 33° 67° (ENE) 13:35:44 437.125/150
AO-7 19 Oct 13:27:31 13:30:04 12° 40° (NE) 13:32:36 .
ISS 19 Oct 13:27:37 13:30:20 23° 344° (NNW) 13:33:03 437.550
SPROUT 19 Oct 13:31:54 13:35:50 34° 97° (E) 13:39:45 437.525
M-CUBED/EXP-1 PRIME 19 Oct 13:35:43 13:38:52 37° 67° (ENE) 13:41:56 437.505
QB50P2 19 Oct 13:39:22 13:42:31 20° 267° (W) 13:45:41 145.880/145.840
BEESAT 3 19 Oct 13:41:26 13:45:26 80° 304° (WNW) 13:49:29 437.485
NANOSAT C BR1 19 Oct 13:43:38 13:46:56 22° 266° (W) 13:50:15 145.865
Gurwin Techsat 1B 19 Oct 13:48:21 13:53:10 36° 67° (ENE) 13:58:01 435.225
DUCHIFAT 1 19 Oct 13:55:24 13:58:24 19° 267° (W) 14:01:26 145.980
AO-85 19 Oct 14:04:17 14:07:46 33° 116° (ESE) 14:11:21 145.980
BUGSAT 1 19 Oct 14:06:20 14:10:24 50° 260° (W) 14:14:32 437.445
VELOX 1 19 Oct 14:07:23 14:11:47 56° 101° (E) 14:16:08 145.980
ESTCUBE 1 19 Oct 14:13:29 14:17:02 23° 294° (WNW) 14:20:34 437.505/2401.250
50 SAT 19 Oct 14:15:29 14:17:41 16° 94° (E) 14:19:51 437.505
nSIGHT-1 19 Oct 14:35:14 14:37:24 17° 359° (N) 14:39:34 .
BEESAT 2 19 Oct 14:59:38 15:03:27 41° 309° (NW) 15:07:19 435.950
ISS 19 Oct 15:05:20 15:07:37 17° 4° (N) 15:09:55 437.550
Oscar 19 19 Oct 15:05:50 15:10:26 32° 264° (W) 15:15:03 437.125/150
SPROUT 19 Oct 15:08:11 15:11:32 22° 294° (WNW) 15:14:51 437.525
M-CUBED/EXP-1 PRIME 19 Oct 15:12:04 15:13:27 12° 261° (W) 15:14:51 437.505
AO-7 19 Oct 15:13:00 15:20:48 48° 62° (ENE) 15:28:37 .
DX 1 19 Oct 15:17:15 15:21:39 79° 102° (ESE) 15:26:02 434.975-435.025
BEESAT 3 19 Oct 15:21:58 15:23:39 12° 323° (NW) 15:25:18 437.485
Gurwin Techsat 1B 19 Oct 15:28:32 15:33:08 30° 265° (W) 15:37:47 435.225
SO-50 19 Oct 15:31:53 15:35:27 22° 42° (NE) 15:39:05 436.795
ITAMSAT 1 19 Oct 15:35:50 15:40:29 34° 67° (ENE) 15:45:10 435.822/435.867
UKube-1 19 Oct 15:43:39 15:48:00 85° 283° (WNW) 15:52:19 .
AO-85 19 Oct 15:45:00 15:48:13 24° 315° (NW) 15:51:31 145.980
VELOX 1 19 Oct 15:45:07 15:47:45 16° 297° (WNW) 15:50:22 145.980
50 SAT 19 Oct 15:47:13 15:50:00 25° 290° (WNW) 15:52:47 437.505
MOZHAYETS 4 19 Oct 16:06:01 16:09:47 25° 94° (E) 16:13:31
nSIGHT-1 19 Oct 16:11:42 16:14:27 26° 19° (NNE) 16:17:13 .
ITUPSAT 1 19 Oct 16:24:51 16:29:11 33° 97° (E) 16:33:29 437.325
BEESAT 19 Oct 16:40:53 16:45:31 49° 99° (E) 16:50:08 436.000
PCSat 19 Oct 16:41:23 16:44:17 14° 36° (NE) 16:47:10 145.827
ISS 19 Oct 16:41:44 16:44:47 34° 24° (NNE) 16:47:50 437.550
DOVE 4 19 Oct 16:50:09 16:52:57 17° 64° (ENE) 16:55:49 437.250
DX 1 19 Oct 16:55:46 16:57:11 11° 300° (WNW) 16:58:36 434.975-435.025
AO-7 19 Oct 17:05:55 17:13:37 41° 261° (W) 17:21:22 .
SO-50 19 Oct 17:11:43 17:16:15 57° 241° (WSW) 17:20:50 436.795
ITAMSAT 1 19 Oct 17:15:23 17:19:56 31° 264° (W) 17:24:32 435.822/435.867
CUTE-I 19 Oct 17:39:02 17:42:26 17° 60° (ENE) 17:45:50 437.470
KKS-1 19 Oct 17:41:22 17:43:59 15° 91° (E) 17:46:36 437.445
MOZHAYETS 4 19 Oct 17:42:51 17:46:58 34° 291° (WNW) 17:51:04
nSIGHT-1 19 Oct 17:47:46 17:50:56 60° 217° (SW) 17:54:06 .
CUBESAT XI-V 19 Oct 17:50:53 17:55:29 68° 102° (ESE) 18:00:03 437.345
XW-2C 19 Oct 17:51:38 17:54:08 17° 66° (ENE) 17:56:38 145.795 - 145.815
ITUPSAT 1 19 Oct 18:02:49 18:06:53 28° 294° (WNW) 18:10:57 437.325
HO-68 19 Oct 18:05:08 18:09:56 20° 54° (NE) 18:14:44 435.675
STARS 19 Oct 18:17:03 18:19:32 15° 91° (E) 18:22:00 437.465
ISS 19 Oct 18:18:14 18:21:16 36° 221° (SW) 18:24:18 437.550
BEESAT 19 Oct 18:19:30 18:22:56 20° 297° (WNW) 18:26:22 436.000
PCSat 19 Oct 18:23:18 18:28:44 68° 58° (ENE) 18:34:06 145.827
DOVE 4 19 Oct 18:26:20 18:30:18 43° 262° (W) 18:34:25 437.250
XW-2F 19 Oct 18:36:03 18:39:43 51° 74° (ENE) 18:43:24 145.980 - 146.000
KAITUO 1B 19 Oct 18:36:07 18:39:36 39° 73° (ENE) 18:43:07 145.475/437.950
LilacSat-2 19 Oct 18:39:03 18:42:51 66° 75° (ENE) 18:46:39 437.200
XW-2D 19 Oct 18:47:31 18:51:20 81° 74° (ENE) 18:55:08 145.860 - 145.880
NUDT-PHONESAT 19 Oct 18:51:43 18:55:23 60° 75° (ENE) 18:59:02 437.300
XW-2B 19 Oct 19:00:58 19:04:45 72° 258° (WSW) 19:08:34 145.730 - 145.750
CUBEBUG 2 19 Oct 19:08:36 19:11:59 20° 64° (ENE) 19:15:24 437.445
KKS-1 19 Oct 19:16:28 19:20:51 54° 287° (WNW) 19:25:13 437.445
CUTE-I 19 Oct 19:16:36 19:21:53 69° 258° (WSW) 19:27:14 437.470
XW-2C 19 Oct 19:24:31 19:28:02 35° 262° (W) 19:31:33 145.795 - 145.815
CUBESAT XI-V 19 Oct 19:29:57 19:32:17 14° 298° (WNW) 19:34:37 437.345
YUBILEINY 19 Oct 19:30:31 19:34:43 14° 55° (NE) 19:38:55 435.215
ZACube-1 19 Oct 19:30:58 19:31:58 11° 60° (ENE) 19:32:58 437.345
UWE-3 19 Oct 19:47:56 19:51:53 28° 68° (ENE) 19:55:52 435.000/436.395/437.385
HO-68 19 Oct 19:49:32 19:56:43 90° 80° (E) 20:03:57 435.675
STARS 19 Oct 19:51:50 19:56:11 55° 288° (WNW) 20:00:31 437.465
CUTE 1.7 + AOD 2 19 Oct 19:52:40 19:56:53 88° 83° (E) 20:01:08 437.475
STRAND 1 19 Oct 19:57:30 20:00:51 17° 91° (E) 20:04:11 437.568
SEEDS 19 Oct 20:01:37 20:05:45 68° 75° (ENE) 20:09:54 437.485
Oscar 11 19 Oct 20:07:47 20:10:12 15° 63° (ENE) 20:12:38 .
PCSat 19 Oct 20:08:02 20:11:32 18° 255° (WSW) 20:15:01 145.827
KAITUO 1B 19 Oct 20:11:44 20:13:46 14° 268° (W) 20:15:48 145.475/437.950
XW-2F 19 Oct 20:12:56 20:14:07 11° 270° (W) 20:15:18 145.980 - 146.000
BEESAT 3 19 Oct 20:21:46 20:23:02 11° 36° (NE) 20:24:17 437.485
AAUSAT CUBESAT 2 19 Oct 20:28:17 20:32:19 58° 74° (ENE) 20:36:21 437.432
XW-2A 19 Oct 20:39:04 20:42:28 66° 259° (W) 20:45:53 145.665 - 145.685
AO-73 19 Oct 20:41:36 20:45:59 47° 73° (ENE) 20:50:23 145.935
CUBEBUG 2 19 Oct 20:43:43 20:48:12 47° 262° (W) 20:52:49 437.445
ZACube-1 19 Oct 21:02:54 21:07:29 89° 90° (E) 21:12:06 437.345
UWE-3 19 Oct 21:24:05 21:28:13 31° 265° (W) 21:32:23 435.000/436.395/437.385
YUBILEINY 19 Oct 21:24:43 21:33:30 66° 79° (E) 21:42:15 435.215
O/OREOS (USA 219) 19 Oct 21:25:07 21:29:23 42° 107° (ESE) 21:33:43 437.305
EO-88 19 Oct 21:29:07 21:29:48 10° 63° (ENE) 21:30:30 145.990 - 145.960
Max Valier Satellite 19 Oct 21:35:04 21:37:35 17° 67° (ENE) 21:40:06 145.860
STRAND 1 19 Oct 21:35:20 21:40:25 60° 288° (WNW) 21:45:29 437.568
BEESAT 2 19 Oct 21:39:13 21:42:08 19° 42° (NE) 21:45:01 435.950
HO-68 19 Oct 21:41:04 21:45:20 16° 271° (W) 21:49:37 435.675
SEEDS 19 Oct 21:41:10 21:41:52 10° 271° (W) 21:42:35 437.485
Oscar 11 19 Oct 21:41:37 21:45:53 56° 260° (W) 21:50:10 .
FO-29 19 Oct 21:55:34 22:02:08 44° 98° (E) 22:09:19 435.910
BEESAT 3 19 Oct 21:57:20 22:01:18 74° 54° (NE) 22:05:12 437.485
DELFI C3 19 Oct 22:03:51 22:07:39 53° 74° (ENE) 22:11:29 145.870
AAUSAT CUBESAT 2 19 Oct 22:06:38 22:08:07 12° 270° (W) 22:09:36 437.432
UNISAT 6 19 Oct 22:17:24 22:19:49 14° 89° (E) 22:22:11 437.425
AO-73 19 Oct 22:19:22 22:22:26 18° 269° (W) 22:25:32 145.935
TIGRISAT 19 Oct 22:31:48 22:34:59 18° 91° (E) 22:38:07 435.000
AO-85 19 Oct 22:33:21 22:37:39 43° 51° (NE) 22:42:16 145.980
EO-88 19 Oct 22:59:21 23:02:57 58° 259° (W) 23:06:34 145.990 - 145.960
O/OREOS (USA 219) 19 Oct 23:05:24 23:08:58 22° 305° (NW) 23:12:36 437.305
Max Valier Satellite 19 Oct 23:07:45 23:11:09 33° 263° (W) 23:14:34 145.860
BEESAT 2 19 Oct 23:16:13 23:20:10 53° 241° (WSW) 23:24:03 435.950
YUBILEINY 19 Oct 23:22:34 23:29:33 28° 279° (W) 23:36:35 435.215
RS-15 19 Oct 23:28:50 23:33:53 13° 93° (E) 23:38:53 29.354- 29.394
PRISM 19 Oct 23:34:58 23:38:49 36° 98° (E) 23:42:38 437.425
ESTCUBE 1 19 Oct 23:36:23 23:40:28 35° 70° (ENE) 23:44:34 437.505/2401.250
FO-29 19 Oct 23:40:52 23:47:03 39° 293° (WNW) 23:53:50 435.910
DELFI C3 19 Oct 23:41:24 23:42:44 11° 270° (W) 23:44:04 145.870
LO-87 19 Oct 23:51:07 23:54:41 72° 76° (ENE) 23:58:18 145.935 - 145.965
UNISAT 6 19 Oct 23:52:21 23:56:56 60° 287° (WNW) 00:01:23 437.425
TIGRISAT 20 Oct 00:07:29 00:11:55 46° 289° (WNW) 00:16:13 435.000
AO-85 20 Oct 00:14:06 00:17:54 25° 246° (WSW) 00:21:54 145.980
SPROUT 20 Oct 00:25:48 00:29:30 29° 68° (ENE) 00:33:12 437.525
EO-79 20 Oct 00:57:25 01:01:11 29° 96° (E) 01:04:54 145.935-145.965
AIST 2D 20 Oct 00:58:07 01:01:35 84° 283° (WNW) 01:05:03 435.315
POLYITAN 1 20 Oct 01:01:53 01:05:46 33° 97° (E) 01:09:35 437.675
VELOX 1 20 Oct 01:05:03 01:09:18 54° 73° (ENE) 01:13:36 145.980
PRISM 20 Oct 01:10:50 01:13:49 20° 294° (WNW) 01:16:49 437.425
ESTCUBE 1 20 Oct 01:13:48 01:17:20 23° 266° (W) 01:20:54 437.505/2401.250
QB50P2 20 Oct 01:21:52 01:26:07 62° 101° (E) 01:30:19 145.880/145.840
NANOSAT C BR1 20 Oct 01:25:47 01:29:58 54° 100° (E) 01:34:06 145.865
RS-15 20 Oct 01:31:43 01:43:42 63° 114° (ESE) 01:55:42 29.354- 29.394
DUCHIFAT 1 20 Oct 01:36:51 01:41:05 64° 101° (E) 01:45:15 145.980
BUGSAT 1 20 Oct 01:47:41 01:50:57 21° 94° (E) 01:54:10 437.445
SPROUT 20 Oct 02:01:47 02:05:20 25° 265° (W) 02:08:57 437.525
Gurwin Techsat 1B 20 Oct 02:05:22 02:07:41 13° 89° (E) 02:10:01 435.225
DX 1 20 Oct 02:13:08 02:17:26 75° 74° (ENE) 02:21:46 434.975-435.025
50 SAT 20 Oct 02:15:37 02:18:52 76° 257° (WSW) 02:22:10 437.505
EO-79 20 Oct 02:33:19 02:36:48 25° 293° (WNW) 02:40:17 145.935-145.965
POLYITAN 1 20 Oct 02:38:00 02:41:21 23° 294° (WNW) 02:44:40 437.675
UKube-1 20 Oct 02:38:23 02:42:40 89° 88° (E) 02:47:00 .
VELOX 1 20 Oct 02:43:41 02:46:04 14° 269° (W) 02:48:27 145.980
M-CUBED/EXP-1 PRIME 20 Oct 02:46:32 02:49:29 24° 102° (ESE) 02:52:35 437.505
QB50P2 20 Oct 02:59:19 03:01:21 13° 298° (WNW) 03:03:24 145.880/145.840
NANOSAT C BR1 20 Oct 03:02:50 03:05:12 15° 297° (WNW) 03:07:34 145.865
MOZHAYETS 4 20 Oct 03:08:29 03:12:22 27° 67° (ENE) 03:16:16
DUCHIFAT 1 20 Oct 03:14:16 03:16:11 13° 298° (WNW) 03:18:06 145.980
Oscar 19 20 Oct 03:15:43 03:20:52 83° 103° (ESE) 03:26:00 437.125/150
AO-7 20 Oct 03:17:16 03:19:34 11° 86° (E) 03:21:50 .
BUGSAT 1 20 Oct 03:22:31 03:26:21 34° 290° (WNW) 03:30:08 437.445
ITUPSAT 1 20 Oct 03:32:03 03:36:35 43° 70° (ENE) 03:41:08 437.325
NO-84 20 Oct 03:35:58 03:39:34 26° 128° (SE) 03:43:10 435.350 FM
Gurwin Techsat 1B 20 Oct 03:42:54 03:48:15 82° 286° (WNW) 03:53:34 435.225
RS-15 20 Oct 03:44:57 03:56:45 49° 319° (NW) 04:08:30 29.354- 29.394
BEESAT 20 Oct 03:47:42 03:52:25 62° 72° (ENE) 03:57:10 436.000
ITAMSAT 1 20 Oct 03:50:36 03:51:32 10° 88° (E) 03:52:26 435.822/435.867
DX 1 20 Oct 03:53:55 03:54:07 10° 271° (W) 03:54:19 434.975-435.025
M-CUBED/EXP-1 PRIME 20 Oct 04:20:59 04:23:50 23° 296° (WNW) 04:26:51 437.505
KKS-1 20 Oct 04:40:20 04:43:06 17° 63° (ENE) 04:45:54 437.445
MOZHAYETS 4 20 Oct 04:45:14 04:49:24 32° 264° (W) 04:53:34
CUBESAT XI-V 20 Oct 04:54:32 04:59:09 72° 74° (ENE) 05:03:46 437.345
Oscar 19 20 Oct 04:56:58 04:59:29 14° 302° (WNW) 05:02:00 437.125/150
AO-7 20 Oct 05:05:35 05:13:51 65° 105° (ESE) 05:22:06 .
ITUPSAT 1 20 Oct 05:10:54 05:14:34 22° 266° (W) 05:18:15 437.325
NO-84 20 Oct 05:12:36 05:16:49 52° 325° (NW) 05:20:57 435.350 FM
STARS 20 Oct 05:14:36 05:17:10 15° 62° (ENE) 05:19:45 437.465
Gurwin Techsat 1B 20 Oct 05:25:20 05:27:20 12° 304° (WNW) 05:29:21 435.225
ITAMSAT 1 20 Oct 05:26:26 05:31:43 86° 105° (ESE) 05:36:57 435.822/435.867
BEESAT 20 Oct 05:27:56 05:30:35 15° 269° (W) 05:33:16 436.000
O/OREOS (USA 219) 20 Oct 05:56:35 05:58:35 12° 49° (NE) 06:00:34 437.305
RS-15 20 Oct 06:03:33 06:13:19 26° 351° (N) 06:22:51 29.354- 29.394
KKS-1 20 Oct 06:14:55 06:19:14 52° 260° (W) 06:23:36 437.445
DOVE 4 20 Oct 06:22:56 06:27:45 46° 99° (E) 06:32:44 437.250
XW-2B 20 Oct 06:34:57 06:35:47 11° 90° (E) 06:36:37 145.730 - 145.750
CUBESAT XI-V 20 Oct 06:35:19 06:37:00 12° 271° (W) 06:38:40 437.345
STARS 20 Oct 06:48:44 06:53:02 56° 259° (W) 06:57:23 437.465
NO-84 20 Oct 06:51:59 06:54:59 18° 344° (NNW) 06:57:53 435.350 FM
XW-2C 20 Oct 06:56:25 06:59:15 20° 94° (E) 07:02:04 145.795 - 145.815
AO-7 20 Oct 06:59:05 07:06:05 32° 304° (NW) 07:13:05 .
ITAMSAT 1 20 Oct 07:07:51 07:10:26 14° 302° (WNW) 07:13:01 435.822/435.867
STRAND 1 20 Oct 07:13:48 07:18:05 27° 65° (ENE) 07:22:23 437.568
HO-68 20 Oct 07:18:18 07:22:29 16° 88° (E) 07:26:38 435.675
SO-50 20 Oct 07:26:42 07:30:48 36° 116° (ESE) 07:34:55 436.795
CUTE-I 20 Oct 07:32:47 07:37:56 44° 99° (E) 07:43:03 437.470
O/OREOS (USA 219) 20 Oct 07:34:02 07:38:40 88° 254° (WSW) 07:43:16 437.305
CUTE 1.7 + AOD 2 20 Oct 07:38:02 07:40:18 14° 91° (E) 07:42:33 437.475
KAITUO 1B 20 Oct 07:39:50 07:43:26 49° 100° (E) 07:47:00 145.475/437.950
XW-2F 20 Oct 07:40:58 07:44:41 68° 101° (E) 07:48:23 145.980 - 146.000
LilacSat-2 20 Oct 07:45:25 07:49:12 90° 32° (NNE) 07:52:58 437.200
SEEDS 20 Oct 07:47:17 07:47:55 10° 89° (E) 07:48:32 437.485
XW-2D 20 Oct 07:53:06 07:56:51 75° 284° (WNW) 08:00:33 145.860 - 145.880
NUDT-PHONESAT 20 Oct 07:54:33 07:58:14 75° 103° (ESE) 08:01:52 437.300
DOVE 4 20 Oct 08:01:17 08:05:08 23° 294° (WNW) 08:09:06 437.250
XW-2B 20 Oct 08:06:37 08:10:17 53° 286° (WNW) 08:13:55 145.730 - 145.750
FO-29 20 Oct 08:11:55 08:15:11 17° 57° (ENE) 08:18:37 435.910
